Location: Lafig�re
(44.4503°N, 4.0357°E)
Time: 16:39:56
(UTC+00:00)

Vanguard 2 Rocket - Pass Details

Date: 27 June 2021
Orbit: 555 x 3325 km, 32.9° (Epoch: 28 July)

Event Time Altitude Azimuth Distance (km) Brightness Sun altitude
Rises 22:58:06 0° 279° (W) 7,214 11.8 -21.3°
Reaches altitude 10° 23:04:31 10° 268° (W) 5,950 11.1 -21.6°
Maximum altitude 23:16:56 25° 224° (SW) 4,030 9.8 -21.9°
Enters shadow 23:20:22 22° 204° (SSW) 3,879 9.6 -22.0°
